CDT,Max TemperatureF,Mean TemperatureF,Min TemperatureF,Max Dew PointF,MeanDew PointF,Min DewpointF,Max Humidity, Mean Humidity, Min Humidity, Max Sea Level PressureIn, Mean Sea Level PressureIn, Min Sea Level PressureIn, Max VisibilityMiles, Mean VisibilityMiles, Min VisibilityMiles, Max Wind SpeedMPH, Mean Wind SpeedMPH, Max Gust SpeedMPH,PrecipitationIn, CloudCover, Events, WindDirDegrees
2013-6-1,84,75,66,73,67,63,100,78,62,30.07,29.99,29.90,10,9,2,18,7,,0.00,3,,196
2013-6-2,77,70,64,70,67,64,100,90,74,29.97,29.94,29.90,10,10,1,9,4,,0.00,4,,260
2013-6-3,77,66,55,64,63,55,100,84,61,30.04,29.98,29.95,10,10,6,9,2,,0.00,3,,8
2013-6-4,82,66,51,70,61,50,100,81,54,30.07,30.03,29.99,10,8,0,6,1,,0.00,1,,49
2013-6-5,75,66,57,72,66,55,100,96,83,30.04,29.98,29.91,10,8,2,10,2,,0.00,2,,177
2013-6-6,82,72,62,73,69,63,100,92,74,29.90,29.83,29.78,10,10,4,13,4,,0.00,2,,228
2013-6-7,80,71,62,72,68,63,100,93,70,29.89,29.81,29.77,10,7,0,8,2,,0.00,3,,4
2013-6-8,80,70,60,73,66,61,100,91,70,30.07,29.99,29.88,10,7,0,8,2,,0.00,3,,217
2013-6-9,78,69,60,77,69,61,100,99,89,30.08,30.03,29.95,10,9,1,13,3,,0.00,4,,169
2013-6-10,82,74,64,75,71,64,100,94,79,29.99,29.93,29.89,10,9,2,15,6,30,0.00,4,,219
2013-6-11,87,74,62,79,72,63,100,91,74,30.04,30.01,29.99,10,8,1,7,1,,0.00,1,,264
2013-6-12,91,80,68,84,77,68,100,92,75,30.09,30.03,29.96,10,10,10,9,2,,0.00,0,,228
2013-6-13,86,77,68,82,74,66,100,90,79,29.97,29.88,29.82,10,10,9,14,8,,0.00,3,,329
2013-6-14,80,68,57,70,64,57,100,85,61,30.07,30.01,29.94,10,10,2,8,2,,0.00,0,,32
2013-6-15,84,70,55,73,66,55,100,86,66,30.13,30.08,30.05,10,10,9,10,2,,0.00,0,,224
2013-6-16,87,74,60,77,70,61,100,89,66,30.12,30.07,30.00,10,10,6,13,2,,0.00,1,,218
2013-6-17,84,76,68,77,72,68,100,93,74,30.04,30.00,29.93,10,10,7,12,3,,0.00,2,,206
2013-6-18,77,70,62,73,69,63,100,95,78,29.99,29.92,29.87,10,8,1,14,3,,0.00,5,,33
2013-6-19,84,72,60,75,69,61,100,91,70,30.11,30.04,29.97,10,9,2,7,1,,0.00,0,,24
2013-6-20,87,74,62,77,46,32,100,54,14,30.21,30.16,30.10,10,9,0,12,2,,0.00,1,,191
2013-6-21,82,71,60,32,32,32,34,26,16,30.27,30.22,30.18,10,8,0,18,1,,0.00,1,,172
2013-6-22,87,74,60,32,32,32,34,24,14,30.25,30.18,30.12,10,7,1,9,2,,0.00,1,,161
2013-6-23,82,72,62,32,32,32,32,23,16,30.22,30.16,30.11,10,8,2,12,1,,0.00,1,,155
2013-6-24,87,74,62,32,32,32,32,22,14,30.22,30.16,30.11,10,9,2,16,2,,0.00,1,,207
2013-6-25,87,76,66,32,32,32,28,20,14,30.17,30.10,30.03,10,7,0,9,2,,0.00,3,,213
2013-6-26,89,78,68,32,32,32,26,19,13,30.06,29.99,29.89,10,8,3,16,4,,0.00,1,,224
2013-6-27,89,80,71,32,32,32,23,18,13,29.95,29.88,29.83,10,9,1,13,5,,0.00,3,,238
2013-6-28,86,76,66,70,47,32,94,43,14,29.86,29.78,29.70,10,8,0,8,2,,0.00,2,,263
2013-6-29,86,73,60,66,62,57,100,71,40,29.73,29.71,29.67,10,9,0,10,3,,0.00,2,,255
2013-6-30,84,72,59,64,62,55,100,74,42,29.83,29.77,29.71,10,10,4,10,2,,0.00,2,,315